| time (UTC) | temp C | wind direction | speed KPH | gust KPH | rain 1hr cm | rain 24hr cm | rain mn cm | humidity % | barometer mb |
| 20260504130502 | 15 | 283 | 8.0 | 22.5 | 0.00 | 0.23 | 0.00 | 65 | 989.6 |
| 20260504110502 | 12 | 219 | 4.8 | 11.3 | 0.00 | 0.23 | 0.00 | 70 | 988.3 |
| 20260504100503 | 12 | 209 | 8.0 | 11.3 | 0.00 | 0.23 | 0.00 | 70 | 988.3 |
| 20260504082002 | 10 | 203 | 4.8 | 11.3 | 0.00 | 0.23 | 0.00 | 76 | 988.5 |
| 20260504081502 | 10 | 200 | 6.4 | 12.9 | 0.00 | 0.23 | 0.00 | 76 | 988.5 |
| 20260504081001 | 10 | 186 | 6.4 | 11.3 | 0.00 | 0.23 | 0.00 | 76 | 988.6 |
| 20260504080502 | 10 | 188 | 4.8 | 14.5 | 0.00 | 0.23 | 0.00 | 76 | 988.6 |
| 20260504050502 | 10 | 211 | 8.0 | 14.5 | 0.00 | 0.23 | 0.00 | 72 | 989.8 |
| 20260504050002 | 10 | 187 | 9.7 | 17.7 | 0.00 | 0.23 | 0.00 | 75 | 989.8 |
| 20260504045502 | 9 | 188 | 8.0 | 14.5 | 0.00 | 0.23 | 0.00 | 77 | 989.8 |
| 20260504045002 | 9 | 190 | 6.4 | 16.1 | 0.00 | 0.23 | 0.00 | 78 | 989.8 |
| 20260504044502 | 9 | 175 | 6.4 | 11.3 | 0.00 | 0.23 | 0.00 | 78 | 989.9 |
| 20260504044001 | 8 | 186 | 6.4 | 11.3 | 0.00 | 0.23 | 0.00 | 79 | 989.9 |
| 20260504043503 | 8 | 179 | 6.4 | 11.3 | 0.00 | 0.23 | 0.00 | 79 | 990.0 |
| 20260504043001 | 8 | 183 | 6.4 | 9.7 | 0.00 | 0.23 | 0.00 | 80 | 990.0 |
| 20260504042502 | 8 | 187 | 6.4 | 9.7 | 0.00 | 0.23 | 0.00 | 81 | 990.1 |
| 20260504042002 | 8 | 199 | 6.4 | 9.7 | 0.00 | 0.23 | 0.00 | 81 | 990.1 |
| 20260504041502 | 8 | 193 | 6.4 | 11.3 | 0.00 | 0.23 | 0.00 | 81 | 990.1 |
| 20260504041002 | 8 | 185 | 6.4 | 9.7 | 0.00 | 0.23 | 0.00 | 81 | 990.2 |
| 20260504040502 | 8 | 198 | 6.4 | 11.3 | 0.00 | 0.23 | 0.00 | 81 | 990.1 |
| 20260504040001 | 8 | 183 | 6.4 | 9.7 | 0.00 | 0.23 | 0.00 | 81 | 990.1 |
| 20260504035502 | 9 | 225 | 4.8 | 6.4 | 0.00 | 0.23 | 0.00 | 80 | 990.2 |
| 20260504035002 | 9 | 225 | 6.4 | 8.0 | 0.00 | 0.23 | 0.00 | 81 | 990.3 |
| 20260504034502 | 9 | 225 | 6.4 | 8.0 | 0.00 | 0.23 | 0.00 | 80 | 990.3 |
| 20260504034002 | 9 | 225 | 4.8 | 8.0 | 0.00 | 0.23 | 0.00 | 79 | 990.3 |
| 20260504033502 | 9 | 216 | 6.4 | 9.7 | 0.00 | 0.23 | 0.00 | 79 | 990.4 |
| 20260504033002 | 10 | 189 | 6.4 | 9.7 | 0.00 | 0.23 | 0.00 | 79 | 990.4 |
| 20260504032502 | 10 | 184 | 8.0 | 9.7 | 0.00 | 0.23 | 0.00 | 78 | 990.4 |
| 20260504032002 | 10 | 183 | 8.0 | 9.7 | 0.00 | 0.23 | 0.00 | 77 | 990.4 |
| 20260504031502 | 10 | 182 | 8.0 | 11.3 | 0.00 | 0.23 | 0.00 | 77 | 990.4 |
| 20260504031001 | 10 | 180 | 8.0 | 11.3 | 0.00 | 0.23 | 0.00 | 77 | 990.4 |
| 20260504030502 | 10 | 180 | 8.0 | 9.7 | 0.00 | 0.23 | 0.00 | 76 | 990.3 |
| 20260504030002 | 10 | 181 | 8.0 | 9.7 | 0.00 | 0.23 | 0.00 | 76 | 990.3 |
| 20260504025502 | 10 | 181 | 8.0 | 11.3 | 0.00 | 0.23 | 0.00 | 75 | 990.2 |
| 20260504025002 | 10 | 183 | 8.0 | 9.7 | 0.00 | 0.23 | 0.00 | 74 | 990.1 |
| 20260504024502 | 11 | 181 | 8.0 | 9.7 | 0.00 | 0.23 | 0.00 | 74 | 990.1 |
| 20260504024002 | 11 | 182 | 8.0 | 9.7 | 0.00 | 0.23 | 0.00 | 73 | 990.1 |
| 20260504023502 | 11 | 180 | 8.0 | 11.3 | 0.00 | 0.23 | 0.00 | 73 | 990.1 |
| 20260504023002 | 11 | 181 | 8.0 | 9.7 | 0.00 | 0.23 | 0.00 | 73 | 990.1 |
| 20260504022502 | 11 | 180 | 8.0 | 9.7 | 0.00 | 0.23 | 0.00 | 72 | 989.9 |
| 20260504022002 | 11 | 181 | 8.0 | 9.7 | 0.00 | 0.23 | 0.00 | 72 | 989.8 |
| 20260504021502 | 11 | 182 | 8.0 | 9.7 | 0.00 | 0.23 | 0.00 | 73 | 989.7 |
| 20260504021002 | 11 | 183 | 8.0 | 11.3 | 0.00 | 0.23 | 0.00 | 72 | 989.6 |
| 20260504020502 | 11 | 179 | 8.0 | 11.3 | 0.00 | 0.23 | 0.00 | 71 | 989.7 |
| 20260504020002 | 11 | 181 | 8.0 | 11.3 | 0.00 | 0.23 | 0.00 | 70 | 989.7 |
| 20260504015502 | 11 | 182 | 8.0 | 11.3 | 0.00 | 0.23 | 0.00 | 69 | 989.8 |
| 20260504015001 | 11 | 186 | 9.7 | 11.3 | 0.00 | 0.20 | 0.00 | 69 | 989.6 |
| 20260504014503 | 12 | 169 | 8.0 | 11.3 | 0.00 | 0.18 | 0.00 | 68 | 989.6 |
| 20260504014002 | 12 | 170 | 6.4 | 9.7 | 0.00 | 0.13 | 0.00 | 68 | 989.7 |
| 20260504013502 | 12 | 179 | 8.0 | 11.3 | 0.00 | 0.08 | 0.00 | 67 | 989.8 |
| 20260504013003 | 12 | 173 | 8.0 | 12.9 | 0.00 | 0.08 | 0.00 | 66 | 989.7 |
| 20260504012501 | 12 | 176 | 8.0 | 11.3 | 0.00 | 0.00 | 0.00 | 65 | 989.7 |
| 20260504012002 | 13 | 170 | 8.0 | 9.7 | 0.00 | 0.00 | 0.00 | 64 | 989.7 |
| 20260504011502 | 13 | 180 | 6.4 | 11.3 | 0.00 | 0.00 | 0.00 | 62 | 989.7 |
| 20260504011002 | 13 | 188 | 6.4 | 9.7 | 0.00 | 0.00 | 0.00 | 61 | 989.8 |
| 20260504010502 | 14 | 182 | 8.0 | 9.7 | 0.00 | 0.00 | 0.00 | 59 | 989.7 |
| 20260504010002 | 14 | 180 | 8.0 | 9.7 | 0.00 | 0.00 | 0.00 | 58 | 989.7 |
| 20260504005502 | 15 | 176 | 8.0 | 9.7 | 0.00 | 0.00 | 0.00 | 57 | 989.8 |
| 20260504005002 | 15 | 180 | 8.0 | 12.9 | 0.00 | 0.00 | 0.00 | 56 | 989.9 |
| 20260504004502 | 15 | 162 | 9.7 | 12.9 | 0.00 | 0.00 | 0.00 | 55 | 990.0 |
| 20260504004002 | 16 | 173 | 6.4 | 12.9 | 0.00 | 0.00 | 0.00 | 54 | 990.1 |
| 20260504003501 | 16 | 163 | 8.0 | 12.9 | 0.00 | 0.00 | 0.00 | 54 | 990.1 |
| 20260504003002 | 16 | 160 | 6.4 | 11.3 | 0.00 | 0.00 | 0.00 | 51 | 990.2 |
| 20260504002502 | 17 | 190 | 6.4 | 12.9 | 0.00 | 0.00 | 0.00 | 50 | 990.2 |
| 20260504002002 | 17 | 168 | 6.4 | 11.3 | 0.00 | 0.00 | 0.00 | 49 | 990.3 |
| 20260504001502 | 17 | 163 | 4.8 | 9.7 | 0.00 | 0.00 | 0.00 | 48 | 990.3 |
| 20260504001002 | 17 | 189 | 6.4 | 12.9 | 0.00 | 0.00 | 0.00 | 44 | 990.3 |
| 20260504000502 | 17 | 212 | 4.8 | 12.9 | 0.00 | 0.00 | 0.00 | 47 | 990.2 |
| 20260504000002 | 17 | 211 | 4.8 | 12.9 | 0.00 | 0.00 | 0.00 | 46 | 990.3 |
| 20260503235502 | 17 | 207 | 6.4 | 11.3 | 0.00 | 0.00 | 0.00 | 46 | 990.3 |
| 20260503235001 | 18 | 180 | 8.0 | 11.3 | 0.00 | 0.00 | 0.00 | 47 | 990.4 |
| 20260503234502 | 18 | 179 | 9.7 | 16.1 | 0.00 | 0.00 | 0.00 | 48 | 990.5 |
| 20260503234002 | 19 | 202 | 8.0 | 14.5 | 0.00 | 0.00 | 0.00 | 41 | 990.6 |
| 20260503233502 | 19 | 221 | 8.0 | 20.9 | 0.00 | 0.00 | 0.00 | 39 | 990.7 |
| 20260503233001 | 20 | 209 | 6.4 | 14.5 | 0.00 | 0.00 | 0.00 | 39 | 991.0 |
| 20260503232502 | 20 | 189 | 11.3 | 30.6 | 0.00 | 0.00 | 0.00 | 41 | 991.1 |
| 20260503232002 | 20 | 193 | 6.4 | 14.5 | 0.00 | 0.00 | 0.00 | 41 | 991.1 |
| 20260503231502 | 20 | 307 | 6.4 | 12.9 | 0.00 | 0.00 | 0.00 | 39 | 991.1 |
| 20260503231002 | 20 | 316 | 4.8 | 11.3 | 0.00 | 0.00 | 0.00 | 38 | 991.2 |
| 20260503230502 | 20 | 276 | 4.8 | 12.9 | 0.00 | 0.00 | 0.00 | 39 | 991.2 |
| 20260503230002 | 20 | 255 | 8.0 | 19.3 | 0.00 | 0.00 | 0.00 | 38 | 991.3 |
| 20260503225501 | 20 | 221 | 6.4 | 17.7 | 0.00 | 0.00 | 0.00 | 38 | 991.4 |
| 20260503225002 | 20 | 329 | 6.4 | 14.5 | 0.00 | 0.00 | 0.00 | 38 | 991.4 |
| 20260503224502 | 20 | 281 | 6.4 | 20.9 | 0.00 | 0.00 | 0.00 | 38 | 991.4 |
| 20260503224002 | 20 | 258 | 4.8 | 14.5 | 0.00 | 0.00 | 0.00 | 38 | 991.4 |
| 20260503223502 | 20 | 239 | 9.7 | 22.5 | 0.00 | 0.00 | 0.00 | 37 | 991.4 |
| 20260503223002 | 20 | 225 | 9.7 | 20.9 | 0.00 | 0.00 | 0.00 | 37 | 991.5 |
| 20260503222502 | 20 | 292 | 8.0 | 20.9 | 0.00 | 0.00 | 0.00 | 38 | 991.6 |
| 20260503222002 | 20 | 286 | 9.7 | 19.3 | 0.00 | 0.00 | 0.00 | 37 | 991.6 |
| 20260503221502 | 20 | 257 | 9.7 | 20.9 | 0.00 | 0.00 | 0.00 | 38 | 991.7 |
| 20260503221002 | 20 | 212 | 9.7 | 25.7 | 0.00 | 0.00 | 0.00 | 38 | 991.8 |
| 20260503220502 | 20 | 190 | 8.0 | 17.7 | 0.00 | 0.00 | 0.00 | 40 | 991.9 |
| 20260503220002 | 20 | 211 | 12.9 | 22.5 | 0.00 | 0.00 | 0.00 | 38 | 991.9 |
| 20260503215503 | 20 | 211 | 9.7 | 19.3 | 0.00 | 0.00 | 0.00 | 39 | 992.0 |
| 20260503215003 | 20 | 311 | 9.7 | 29.0 | 0.00 | 0.00 | 0.00 | 37 | 992.1 |
| 20260503214501 | 20 | 204 | 11.3 | 20.9 | 0.00 | 0.00 | 0.00 | 37 | 992.2 |
| 20260503214003 | 20 | 243 | 9.7 | 20.9 | 0.00 | 0.00 | 0.00 | 37 | 992.3 |
| 20260503213502 | 20 | 235 | 8.0 | 16.1 | 0.00 | 0.00 | 0.00 | 37 | 992.4 |
| 20260503213002 | 20 | 213 | 11.3 | 27.4 | 0.00 | 0.00 | 0.00 | 37 | 992.5 |
| 20260503212501 | 20 | 262 | 11.3 | 29.0 | 0.00 | 0.00 | 0.00 | 37 | 992.6 |
| 20260503212002 | 20 | 193 | 12.9 | 30.6 | 0.00 | 0.00 | 0.00 | 36 | 992.7 |
| 20260503211502 | 20 | 279 | 8.0 | 17.7 | 0.00 | 0.00 | 0.00 | 36 | 992.8 |
| 20260503211002 | 20 | 224 | 9.7 | 25.7 | 0.00 | 0.00 | 0.00 | 38 | 993.0 |
| 20260503210502 | 20 | 195 | 9.7 | 19.3 | 0.00 | 0.00 | 0.00 | 37 | 993.0 |
| 20260503210002 | 20 | 217 | 11.3 | 20.9 | 0.00 | 0.00 | 0.00 | 38 | 993.1 |
| 20260503205506 | 20 | 202 | 11.3 | 25.7 | 0.00 | 0.00 | 0.00 | 37 | 993.2 |
| 20260503205003 | 20 | 177 | 11.3 | 19.3 | 0.00 | 0.00 | 0.00 | 38 | 993.2 |
| 20260503204501 | 20 | 327 | 8.0 | 17.7 | 0.00 | 0.00 | 0.00 | 37 | 993.3 |
| 20260503204002 | 20 | 220 | 9.7 | 24.1 | 0.00 | 0.00 | 0.00 | 38 | 993.3 |
| 20260503203502 | 20 | 196 | 12.9 | 24.1 | 0.00 | 0.00 | 0.00 | 37 | 993.4 |
| 20260503203002 | 20 | 175 | 9.7 | 25.7 | 0.00 | 0.00 | 0.00 | 37 | 993.6 |
| 20260503202502 | 20 | 191 | 11.3 | 32.2 | 0.00 | 0.00 | 0.00 | 38 | 993.7 |
| 20260503202002 | 20 | 248 | 8.0 | 16.1 | 0.00 | 0.00 | 0.00 | 39 | 993.8 |
| 20260503201501 | 20 | 197 | 11.3 | 24.1 | 0.00 | 0.00 | 0.00 | 37 | 993.9 |
| 20260503201002 | 20 | 199 | 12.9 | 24.1 | 0.00 | 0.00 | 0.00 | 36 | 994.0 |
| 20260503200502 | 20 | 319 | 9.7 | 20.9 | 0.00 | 0.00 | 0.00 | 37 | 994.1 |
| 20260503200002 | 20 | 218 | 11.3 | 19.3 | 0.00 | 0.00 | 0.00 | 38 | 994.3 |
| 20260503195502 | 20 | 190 | 8.0 | 19.3 | 0.00 | 0.00 | 0.00 | 38 | 994.4 |
| 20260503195002 | 19 | 188 | 9.7 | 16.1 | 0.00 | 0.00 | 0.00 | 38 | 994.4 |
| 20260503194502 | 19 | 192 | 11.3 | 27.4 | 0.00 | 0.00 | 0.00 | 37 | 994.4 |
| 20260503194002 | 20 | 224 | 12.9 | 29.0 | 0.00 | 0.00 | 0.00 | 39 | 994.6 |
| 20260503193502 | 19 | 217 | 9.7 | 24.1 | 0.00 | 0.00 | 0.00 | 39 | 994.7 |
| 20260503193002 | 19 | 201 | 11.3 | 22.5 | 0.00 | 0.00 | 0.00 | 38 | 994.8 |
| 20260503192501 | 19 | 270 | 8.0 | 19.3 | 0.00 | 0.00 | 0.00 | 39 | 994.8 |
| 20260503192002 | 19 | 233 | 11.3 | 29.0 | 0.00 | 0.00 | 0.00 | 38 | 994.9 |
| 20260503191501 | 19 | 220 | 11.3 | 25.7 | 0.00 | 0.00 | 0.00 | 38 | 995.0 |
| 20260503191002 | 18 | 200 | 9.7 | 19.3 | 0.00 | 0.00 | 0.00 | 39 | 995.0 |
| 20260503190502 | 18 | 121 | 8.0 | 16.1 | 0.00 | 0.00 | 0.00 | 39 | 995.0 |
| 20260503190002 | 18 | 241 | 14.5 | 22.5 | 0.00 | 0.00 | 0.00 | 38 | 995.1 |
| 20260503185502 | 18 | 220 | 11.3 | 27.4 | 0.00 | 0.00 | 0.00 | 39 | 995.2 |
| 20260503185002 | 18 | 316 | 9.7 | 20.9 | 0.00 | 0.00 | 0.00 | 40 | 995.2 |
| 20260503184502 | 18 | 192 | 11.3 | 22.5 | 0.00 | 0.00 | 0.00 | 39 | 995.3 |
| 20260503184003 | 18 | 181 | 11.3 | 25.7 | 0.00 | 0.00 | 0.00 | 41 | 995.3 |
| 20260503183502 | 18 | 189 | 9.7 | 19.3 | 0.00 | 0.00 | 0.00 | 41 | 995.4 |
| 20260503183001 | 18 | 191 | 12.9 | 32.2 | 0.00 | 0.00 | 0.00 | 39 | 995.5 |
| 20260503182502 | 18 | 273 | 8.0 | 25.7 | 0.00 | 0.00 | 0.00 | 39 | 995.6 |
| 20260503182002 | 18 | 277 | 9.7 | 22.5 | 0.00 | 0.00 | 0.00 | 39 | 995.7 |
| 20260503181502 | 18 | 288 | 8.0 | 20.9 | 0.00 | 0.00 | 0.00 | 40 | 995.8 |
| 20260503181002 | 18 | 198 | 11.3 | 32.2 | 0.00 | 0.00 | 0.00 | 38 | 995.8 |
| 20260503180502 | 18 | 312 | 8.0 | 17.7 | 0.00 | 0.00 | 0.00 | 40 | 995.9 |
| 20260503180002 | 18 | 194 | 11.3 | 22.5 | 0.00 | 0.00 | 0.00 | 40 | 995.9 |
| 20260503175501 | 18 | 178 | 9.7 | 24.1 | 0.00 | 0.00 | 0.00 | 43 | 996.0 |
| 20260503175002 | 17 | 200 | 12.9 | 25.7 | 0.00 | 0.00 | 0.00 | 39 | 996.0 |
| 20260503174502 | 17 | 197 | 12.9 | 30.6 | 0.00 | 0.00 | 0.00 | 40 | 996.2 |
| 20260503174002 | 17 | 264 | 11.3 | 29.0 | 0.00 | 0.00 | 0.00 | 41 | 996.2 |
| 20260503173502 | 17 | 214 | 8.0 | 22.5 | 0.00 | 0.00 | 0.00 | 41 | 996.4 |
| 20260503173001 | 17 | 285 | 6.4 | 16.1 | 0.00 | 0.00 | 0.00 | 41 | 996.4 |
| 20260503172502 | 17 | 241 | 11.3 | 24.1 | 0.00 | 0.00 | 0.00 | 41 | 996.4 |
| 20260503172002 | 17 | 310 | 8.0 | 20.9 | 0.00 | 0.00 | 0.00 | 40 | 996.4 |
| 20260503171502 | 17 | 208 | 12.9 | 25.7 | 0.00 | 0.00 | 0.00 | 39 | 996.5 |
| 20260503171002 | 17 | 263 | 8.0 | 25.7 | 0.00 | 0.00 | 0.00 | 40 | 996.6 |
| 20260503170502 | 17 | 207 | 9.7 | 22.5 | 0.00 | 0.00 | 0.00 | 40 | 996.7 |
| 20260503151002 | 15 | 263 | 9.7 | 16.1 | 0.00 | 0.03 | 0.00 | 44 | 997.4 |
| 20260503150502 | 15 | 286 | 9.7 | 22.5 | 0.00 | 0.03 | 0.00 | 45 | 997.5 |